TimeAKDT,TemperatureF,Dew PointF,Humidity,Sea Level PressureIn,VisibilityMPH,Wind Direction,Wind SpeedMPH,Gust SpeedMPH,PrecipitationIn,Events,Conditions,WindDirDegrees,DateUTC
12:23 AM,35.6,35.6,100,29.63,10.0,Variable,6.9,-,N/A,,Scattered Clouds,0,2012-10-18 08:23:00
12:44 AM,37.4,35.6,93,29.64,10.0,Variable,4.6,-,N/A,,Mostly Cloudy,0,2012-10-18 08:44:00
12:54 AM,37.9,35.1,89,29.66,10.0,Variable,5.8,-,N/A,,Mostly Cloudy,0,2012-10-18 08:54:00
1:27 AM,37.4,33.8,87,29.66,10.0,SE,9.2,-,N/A,,Overcast,140,2012-10-18 09:27:00
1:54 AM,37.0,33.1,86,29.68,10.0,Variable,6.9,-,N/A,,Mostly Cloudy,0,2012-10-18 09:54:00
2:54 AM,37.0,34.0,89,29.70,10.0,ENE,8.1,-,N/A,,Mostly Cloudy,70,2012-10-18 10:54:00
3:05 AM,37.4,33.8,87,29.69,10.0,East,8.1,-,N/A,,Mostly Cloudy,80,2012-10-18 11:05:00
3:29 AM,37.4,33.8,87,29.69,10.0,ESE,3.5,-,N/A,,Overcast,110,2012-10-18 11:29:00
3:44 AM,37.4,33.8,87,29.70,10.0,Variable,5.8,-,N/A,,Overcast,0,2012-10-18 11:44:00
3:51 AM,37.4,33.8,87,29.70,10.0,ESE,5.8,-,N/A,,Overcast,120,2012-10-18 11:51:00
3:54 AM,37.9,34.0,86,29.71,10.0,ESE,3.5,-,N/A,,Overcast,110,2012-10-18 11:54:00
4:54 AM,37.9,34.0,86,29.72,10.0,East,5.8,-,N/A,,Overcast,80,2012-10-18 12:54:00
5:54 AM,37.9,34.0,86,29.73,10.0,East,8.1,-,N/A,,Overcast,90,2012-10-18 13:54:00
6:54 AM,37.0,35.1,93,29.74,10.0,Variable,6.9,18.4,0.00,Rain,Light Rain,0,2012-10-18 14:54:00
7:04 AM,37.4,33.8,87,29.74,10.0,East,11.5,20.7,0.00,Rain,Light Rain,100,2012-10-18 15:04:00
7:45 AM,35.6,33.8,93,29.74,10.0,ENE,8.1,-,0.03,Rain,Light Rain,70,2012-10-18 15:45:00
7:54 AM,36.0,34.0,93,29.75,8.0,ENE,8.1,-,0.04,Rain,Light Rain,70,2012-10-18 15:54:00
8:54 AM,37.0,35.1,93,29.76,10.0,East,11.5,16.1,0.00,,Overcast,80,2012-10-18 16:54:00
9:19 AM,37.4,35.6,93,29.75,10.0,East,10.4,19.6,N/A,,Overcast,100,2012-10-18 17:19:00
9:54 AM,37.9,36.0,93,29.77,10.0,East,10.4,24.2,N/A,,Overcast,90,2012-10-18 17:54:00
10:18 AM,37.4,35.6,93,29.76,10.0,ESE,6.9,17.3,0.00,Rain,Light Rain,110,2012-10-18 18:18:00
10:26 AM,37.4,35.6,93,29.76,10.0,East,6.9,18.4,0.00,Rain,Light Rain,90,2012-10-18 18:26:00
10:54 AM,39.0,36.0,89,29.77,10.0,ESE,18.4,27.6,0.00,,Overcast,120,2012-10-18 18:54:00
11:01 AM,39.2,35.6,87,29.76,10.0,East,10.4,27.6,N/A,,Overcast,100,2012-10-18 19:01:00
11:10 AM,39.2,35.6,87,29.77,10.0,ESE,15.0,28.8,N/A,,Overcast,120,2012-10-18 19:10:00
11:17 AM,39.2,35.6,87,29.77,10.0,ESE,12.7,28.8,N/A,,Overcast,110,2012-10-18 19:17:00
11:54 AM,39.0,36.0,89,29.78,10.0,East,12.7,25.3,0.00,,Overcast,100,2012-10-18 19:54:00
12:12 PM,39.2,35.6,87,29.78,10.0,ESE,13.8,24.2,N/A,,Overcast,110,2012-10-18 20:12:00
12:20 PM,39.2,35.6,87,29.78,10.0,East,8.1,24.2,0.00,Rain,Light Rain,100,2012-10-18 20:20:00
12:54 PM,39.0,36.0,89,29.79,8.0,ESE,9.2,18.4,0.00,Rain,Light Rain,110,2012-10-18 20:54:00
1:54 PM,39.9,37.0,89,29.79,10.0,East,12.7,24.2,0.01,Rain,Light Rain,100,2012-10-18 21:54:00
2:54 PM,39.9,37.9,93,29.78,10.0,ESE,11.5,18.4,0.00,Rain,Light Rain,110,2012-10-18 22:54:00
3:54 PM,39.9,37.0,89,29.78,10.0,East,9.2,-,0.00,,Overcast,100,2012-10-18 23:54:00
4:04 PM,39.2,37.4,93,29.76,10.0,East,9.2,17.3,N/A,,Overcast,90,2012-10-19 00:04:00
4:12 PM,39.2,37.4,93,29.76,10.0,East,8.1,-,N/A,,Mostly Cloudy,90,2012-10-19 00:12:00
4:29 PM,39.2,35.6,87,29.77,10.0,East,8.1,-,N/A,,Overcast,100,2012-10-19 00:29:00
4:54 PM,39.9,36.0,86,29.77,10.0,ENE,6.9,-,N/A,,Overcast,70,2012-10-19 00:54:00
5:54 PM,39.0,35.1,86,29.76,10.0,Variable,5.8,-,0.00,,Overcast,0,2012-10-19 01:54:00
6:15 PM,39.2,35.6,87,29.75,10.0,Variable,5.8,-,N/A,,Overcast,0,2012-10-19 02:15:00
6:42 PM,39.2,35.6,87,29.75,10.0,East,5.8,-,N/A,,Overcast,90,2012-10-19 02:42:00
6:54 PM,39.0,36.0,89,29.76,10.0,Variable,4.6,-,N/A,,Overcast,0,2012-10-19 02:54:00
7:54 PM,39.0,35.1,86,29.76,9.0,Variable,6.9,-,0.00,,Overcast,0,2012-10-19 03:54:00
8:54 PM,37.9,35.1,89,29.77,10.0,ENE,8.1,-,0.00,,Overcast,70,2012-10-19 04:54:00
9:31 PM,37.4,33.8,87,29.76,10.0,East,3.5,-,0.01,Rain,Light Rain,90,2012-10-19 05:31:00
9:54 PM,37.0,35.1,93,29.78,10.0,ENE,3.5,-,0.01,Rain,Light Rain,60,2012-10-19 05:54:00
10:54 PM,36.0,35.1,97,29.78,10.0,WNW,8.1,-,0.01,,Overcast,300,2012-10-19 06:54:00
11:39 PM,35.6,33.8,93,29.76,9.0,WNW,8.1,-,N/A,,Overcast,290,2012-10-19 07:39:00
11:50 PM,35.6,33.8,93,29.76,9.0,WNW,11.5,-,N/A,,Overcast,290,2012-10-19 07:50:00
11:54 PM,35.1,34.0,96,29.77,8.0,WNW,11.5,-,N/A,,Overcast,300,2012-10-19 07:54:00